Other Surface Observations
Issued by NWS Upton, NY

Home | Current Version | Previous Version | Text Only | Print | Product List | Glossary On
Versions: 1 2 3 4 5 6 7 8 9 10 11 12 13 14 15 16 17 18 19 20 21 22 23 24 25 26 27 28 29 30 31 32 33 34 35 36 37 38 39 40 41 42 43 44 45 46 47 48 49 50
000
SXUS51 KOKX 110557
OSOOKX
NEW YORK CITY METROPOLITAN AREA WEATHER ROUNDUP
National Weather Service New York NY
100 AM EST MON DEC 11 2017

CITY           SKY/WX    TMP DP  RH WIND       PRES   REMARKS
Central Park   CLOUDY    36  21  54 VRB5G18   30.02F WCI  32
LaGuardia APRT CLOUDY    37  21  52 SW13G18   30.00F WCI  29
Kennedy INTL   CLOUDY    36  24  62 W17       30.03F WCI  26
Newark Liberty CLOUDY    34  23  64 SW6       30.01F WCI  29
Teterboro APRT CLOUDY    34  23  64 SW8       30.00F WCI  27
Bronx Bot Gard   N/A     36  21  55 SW16      30.00F WCI  26
Bronx Lehman C   N/A     36  23  60 SW9         N/A  WCI  29
Queens College   N/A     36  23  60 W9          N/A  WCI  29
Breezy Point     N/A     36 N/A N/A SW10G16     N/A  WCI  28
Brooklyn Coll    N/A     36  25  64 SW9         N/A  WCI  29
Staten Island    N/A     34  25  69 S5          N/A  WCI  30

>>>>>>>>>>>>>>>>>>>>>>>>>>>>>>>>> KEY <<<<<<<<<<<<<<<<<<<<<<<<<<<<<<<
> SKY/WX - SKY CONDITION/PRESENT    : R : WCI - WIND CHILL INDEX    <
>          WEATHER                  : E : VSB - VISIBILITY IN MILES <
> TMP    - TEMPERATURE IN DEG F     : M : HX  - HEAT INDEX          <
> DP     - DEW POINT TEMPERATURE    : A : TC  - TEMPERATURE IN      <
> RH     - RELATIVE HUMIDITY        : R :       CELSIUS             <
> WIND   - DIRECTION/SPEED (MPH)    : K : VRB - VARIABLE WIND  DIR  <
> PRES   - PRESSURE (IN HG)         : S :                           <
>>>>>>>>>>>>>>>>>>>>>>>>>>>>>>>>> KEY <<<<<<<<<<<<<<<<<<<<<<<<<<<<<<<




USA.gov is the U.S. government's official web portal to all federal, state and local government web resources and services.